Dewpoint
46 48 49 49 49 48 48 48 46 44 43 44 45 47 50 49 50 51 49 51 53 54 54 55 57 58 58 59 59 60 61 61 62 63 63 63 63 63
43 45 47 48 48 48 48 49 48 46 44 45 46 46 47 46 48 49 49 49 50 53 54 54 54 55 56 57 58 58 58 59 60 61 61 61 61 61
40 42 43 46 47 48 48 48 48 47 44 43 45 45 45 46 45 46 48 47 47 50 52 53 54 54 55 56 56 57 57 58 59 59 60 60 61 61
38 39 41 41 44 46 47 48 47 46 45 43 43 43 43 43 44 44 44 45 46 48 52 52 51 53 54 54 55 55 55 56 57 58 58 59 59 60
38 39 39 41 42 44 45 46 46 45 46 45 44 44 44 43 42 42 44 45 44 46 50 51 52 53 54 54 54 54 54 54 54 54 55 56 57 58
38 39 39 40 40 42 44 45 46 46 46 45 44 44 43 43 42 42 42 45 43 44 47 49 50 50 52 54 54 52 52 53 54 54 53 53 52 53
36 35 38 40 41 42 40 41 43 44 45 45 44 44 43 42 41 41 42 45 46 46 47 49 48 49 51 54 52 52 51 52 52 52 52 52 51 52
34 34 35 38 39 42 43 43 44 42 42 43 44 43 42 43 43 42 41 42 41 46 45 44 46 46 50 54 52 51 50 50 50 50 50 50 50 52
34 34 34 34 38 38 39 42 42 43 44 44 43 43 43 43 43 42 41 42 42 43 44 42 43 43 46 50 49 49 49 49 49 49 49 50 50 50
34 34 34 34 34 35 35 38 39 40 41 41 44 45 45 45 43 43 42 42 43 42 43 40 41 43 45 49 47 46 47 48 48 49 49 50 49 49
33 33 34 34 36 38 35 37 37 38 41 43 44 45 46 46 45 43 41 40 38 39 44 43 44 45 45 45 45 45 46 47 49 49 50 49 48 48
31 32 36 36 38 39 32 34 36 36 39 40 41 43 46 46 46 44 42 40 38 37 41 39 38 40 38 39 40 42 43 44 47 48 49 48 48 47
29 29 31 34 37 38 36 35 36 36 38 38 40 41 43 44 43 43 42 41 38 37 39 37 34 35 34 36 36 38 39 41 42 44 47 47 47 46
27 27 29 35 36 37 36 36 36 38 38 38 38 39 40 41 41 40 40 40 40 38 37 36 33 35 34 34 35 34 36 37 37 37 40 45 45 45
28 31 35 36 36 36 36 36 37 34 35 35 36 37 39 41 37 36 36 36 36 35 36 34 34 33 33 33 34 33 33 34 35 36 37 37 38 39
31 31 32 34 35 34 33 33 34 34 33 35 37 39 39 36 36 35 34 33 33 33 33 34 33 32 32 32 34 34 33 33 33 34 34 35 36 37
31 30 29 30 30 30 29 31 32 32 33 34 36 37 36 36 35 34 34 33 32 32 31 31 32 32 32 32 32 34 32 32 32 32 32 31 32 34
29 29 28 29 29 29 29 28 32 34 33 34 35 36 35 34 34 33 33 33 32 32 32 31 31 30 31 31 33 31 31 30 31 32 32 30 30 32
29 29 29 29 29 27 28 27 32 32 32 34 35 35 34 34 34 33 32 32 32 32 32 31 30 30 30 29 29 32 29 29 29 29 31 31 30 31
30 29 29 29 28 28 29 31 31 30 31 34 34 34 34 33 32 32 32 31 31 31 29 28 28 29 30 31 28 26 32 29 29 28 28 29 31 33
29 29 29 28 27 29 30 32 31 31 32 34 34 33 33 33 32 33 32 33 32 30 28 27 28 29 29 29 26 25 26 31 32 30 28 28 27 29
28 27 27 28 29 30 32 31 31 31 32 33 33 32 32 32 32 31 31 30 29 28 27 24 23 25 27 28 25 23 23 26 31 33 32 31 28 26
30 30 30 30 31 31 30 30 31 31 33 33 32 32 32 30 30 29 27 23 22 21 18 18 18 21 22 23 20 16 13 19 23 23 24 25 26 28
Lifted_Index
9 8 7 6 5 5 5 5 6 6 7 7 6 6 6 6 5 5 6 7 7 7 7 7 7 7 6 6 5 5 4 4 3 3 3 3 3 3
10 9 7 6 5 5 5 5 5 6 7 7 7 6 7 7 7 7 7 8 9 9 8 8 8 7 7 6 6 5 5 5 4 4 4 4 3 3
11 10 9 7 6 5 5 5 5 5 6 7 7 7 7 8 8 9 9 9 10 10 9 9 9 8 8 7 6 6 6 6 5 5 5 4 4 4
11 11 10 8 7 6 5 5 5 5 6 6 7 7 7 8 9 10 10 10 10 10 10 9 9 8 8 7 7 6 6 6 6 5 5 5 5 5
12 11 10 9 8 7 7 6 6 6 6 6 6 7 7 7 8 9 10 10 10 10 9 9 8 8 8 7 7 6 5 5 5 5 5 6 6 5
13 12 11 10 9 8 8 7 7 6 6 6 7 7 7 7 8 8 9 9 9 9 9 8 8 7 7 6 6 5 5 5 5 5 5 6 6 6
13 13 12 11 10 9 9 8 8 8 7 7 7 7 7 7 7 8 8 9 9 9 8 8 7 7 6 5 5 5 5 5 5 5 5 6 6 6
13 13 13 12 11 10 9 9 9 9 8 8 8 7 7 7 7 8 8 9 9 9 8 8 7 6 5 5 4 4 4 4 5 5 5 6 6 6
12 13 13 12 12 11 10 10 10 10 9 9 9 8 8 7 8 8 9 9 9 10 9 8 7 6 6 5 5 4 4 4 5 5 5 6 6 6
11 12 12 12 11 11 11 11 11 10 10 10 9 9 8 8 8 8 9 9 10 10 10 9 8 7 7 6 5 5 4 4 5 5 5 6 6 6
10 10 11 11 10 10 10 11 11 11 10 10 10 9 9 8 8 9 9 9 10 10 11 10 8 7 7 7 6 6 5 5 5 5 6 6 7 7
8 8 9 9 9 9 10 10 11 11 11 10 10 10 9 9 9 9 9 10 10 11 11 10 9 8 8 8 7 7 6 6 6 6 6 6 7 7
6 6 7 7 7 8 8 10 10 10 11 11 10 10 10 9 9 9 10 10 10 11 11 10 9 9 9 8 8 7 7 6 6 6 6 7 7 7
4 5 5 5 6 7 7 8 9 10 10 11 10 10 10 10 9 9 10 10 11 12 12 11 10 10 9 8 8 7 7 7 7 7 7 8 8 8
4 4 4 5 5 6 7 8 9 10 10 11 10 10 10 9 9 9 10 10 11 12 12 11 11 10 10 9 8 8 8 8 8 8 8 8 9 9
4 4 5 5 5 6 6 7 8 9 10 11 10 10 9 9 9 9 9 10 10 11 11 12 12 12 11 11 10 9 8 9 9 9 9 9 9 10
4 5 5 5 6 6 7 7 8 9 10 10 10 10 9 9 9 9 9 9 9 10 11 12 12 13 13 12 11 10 9 10 10 10 10 10 10 11
5 5 6 6 6 6 7 7 7 8 9 10 10 9 9 8 8 8 9 9 9 9 11 12 13 13 13 13 12 11 10 10 11 11 11 10 11 11
5 6 6 6 6 7 7 7 7 7 8 8 9 9 8 8 8 8 8 8 8 9 10 12 12 13 13 12 12 12 11 11 11 12 12 12 12 12
5 6 6 6 7 7 7 6 6 6 6 7 7 7 7 7 7 8 8 8 8 9 10 11 12 13 13 13 13 12 12 12 12 12 12 12 12 13
6 6 6 7 7 7 6 6 5 5 5 5 6 6 6 6 7 7 8 8 8 9 10 11 13 14 14 14 13 13 12 13 13 13 13 12 12 12
6 6 7 7 7 7 6 5 5 5 4 4 4 5 5 5 6 6 7 8 9 10 11 12 14 15 15 14 13 13 12 13 13 13 14 13 13 12
7 7 7 7 7 6 6 6 5 5 4 4 4 4 4 4 5 6 7 8 9 11 12 13 14 15 14 14 13 12 12 12 13 13 13 15 15 15